Aérodrome :
LOGIN :

S'inscrire | Disclaimer

   EN    FR    IT 

 










Légende :    VFR   VFR Marginal   IFR   IFR Intensif   IFR Très Intensif
Visi : 
Plafond : 
>= 8 km
>= 3000ft
5 à 8 km
1000 à 3000 ft
1500m à 5 km
500 à 1000 ft
800 à 1500m
200 à 500 ft
< 800m
< 200 ft
Symboles :   Orages  Brouillard  Fortes neiges  Fortes précipitations  Vent > 20 kt
SIGMETs :   Divers  Orages  Givrage  Turbulence  Onde Orograph.  Cendres Volcan.






- Altitude de l'aérodrome : 135 ft
- Code IATA : EDI


EGPH - Edinburgh

DERNIER METAR :
  • 071250Z 23009KT 9999 SCT023 SCT028 21/17 Q1015

METARs EXPIRÉS :
  • 071220Z 24009KT 9999 BKN026 22/16 Q1015
  • 071150Z 23009KT 9999 BKN026 22/16 Q1015
  • 071120Z 23010KT 9999 BKN027 21/16 Q1016
  • 071050Z 22004KT 190V260 9999 OVC026 21/16 Q1015
  • 071020Z 21007KT 9999 BKN025 20/15 Q1016

TAF TAF EGPH
Valide du 07 à 12h jusqu'au 08 à 12h UTC


071103Z 0712/0812 22008KT 9999 SCT045
PROB30
TEMPO 0718/0721 7000 RA SHRA
PROB30
TEMPO 0721/0723 BKN009
ATIS : +44 131 339 2823



MET'MAP, la Météo Aéronautique d'un coup d'oeil ! - Copyright ORBIFLY Décembre 2007 - Disclaimer

ORBIFLY MET'MAP TEAM :

Programmation & Développement : Alexandra Zaïnal
Sur une idée originale de : Baudouin d'Aumeries
Assistance à la programmation : Marc-Olivier Méhu
Soutien technique & logistique : Manuel Goepfert

Contact : metmap@orbifly.com




SOURCES & CREDITS :

   NOAA